Cosmos 2297 Rocket - Orbit

View from above orbital plane
View from above orbital plane
View from above satellite
View from above satellite

Ground track
Ground track

The orbit data is extracted from the following two-line orbital elements,

1 23405U 94077B   13136.20228157  .00000252  00000-0  15497-3 0  7370
2 23405 070.9830 114.1227 0001336 009.5762 074.6665 14.15041361954304
Epoch (UTC): 16 May 2013 04:51:17
Eccentricity: 0.0001336
inclination: 70.9830°
perigee height: 841 km
apogee height: 843 km
right ascension of ascending node: 114.1227°
argument of perigee: 9.5762°
revolutions per day: 14.15041361
mean anomaly at epoch: 74.6665°
orbit number at epoch: 95430

The dashed part of the orbit path shows where the satellite is in the earth's shadow,  

Developed and maintained by Chris Peat, Heavens-Above GmbH. Please read the updated FAQ before sending e-mail. Imprint. DLR